GLOBALSTAR M001 1 25162U 98008A 26104.19982439 -.00000089 00000+0 60863-4 0 9993 2 25162 52.0022 177.0862 0001840 166.6045 210.6046 12.38230993281001 GLOBALSTAR M004 1 25163U 98008B 26104.32878226 -.00000094 00000+0 56202-4 0 9995 2 25163 52.0002 215.4244 0003039 227.3201 167.5257 12.63418724299755 GLOBALSTAR M002 1 25164U 98008C 26104.02102436 -.00000084 00000+0 -15137-3 0 9997 2 25164 52.0007 205.9082 0000752 344.6954 15.3843 11.61515914219021 GLOBALSTAR M003 1 25165U 98008D 26104.31297516 -.00000179 00000+0 -95522-3 0 9995 2 25165 51.9853 54.4490 0007824 174.3022 351.8460 12.12017491269730 GLOBALSTAR M014 1 25306U 98023A 26103.83777507 -.00000059 00000+0 34706-3 0 9991 2 25306 51.9809 123.2672 0001066 193.7412 337.9541 11.65485952226225 GLOBALSTAR M006 1 25307U 98023B 26104.24088861 -.00000106 00000+0 -62301-3 0 9992 2 25307 51.9929 185.9766 0002986 287.4537 105.4307 11.58177953251710 GLOBALSTAR M015 1 25308U 98023C 26104.28873543 -.00000045 00000+0 64666-3 0 9993 2 25308 51.9831 298.1333 0012035 250.7733 279.9681 11.48861303228687 GLOBALSTAR M008 1 25309U 98023D 26104.31032608 -.00000082 00000+0 11449-3 0 9999 2 25309 51.9984 45.0058 0003124 85.0612 81.7217 12.36082746275088 GLOBALSTAR M023 1 25621U 99004A 26104.26764444 -.00000052 00000+0 28983-3 0 9998 2 25621 52.0104 216.6298 0010325 74.4138 303.7541 12.62523215253767 GLOBALSTAR M040 1 25622U 99004B 26104.07633553 -.00000096 00000+0 41149-4 0 9992 2 25622 51.9917 221.8094 0000394 18.1744 153.3708 12.62032369253245 GLOBALSTAR M036 1 25623U 99004C 26104.17811856 .00000047 00000+0 18909-2 0 9999 2 25623 51.9950 166.9540 0010320 267.5073 126.7679 11.86626564214714 GLOBALSTAR M038 1 25624U 99004D 26104.22748025 -.00000075 00000+0 16339-3 0 9991 2 25624 51.9975 284.5973 0001172 348.7224 182.0531 12.32543708239498 GLOBALSTAR M022 1 25649U 99012A 26104.30273433 -.00000062 00000+0 29514-3 0 9997 2 25649 52.0029 192.3217 0002560 56.1799 344.2812 12.02512009212608 GLOBALSTAR M041 1 25650U 99012B 26104.24788549 -.00000076 00000+0 12153-3 0 9997 2 25650 52.0008 83.0981 0001056 196.2944 163.7858 11.96682874214323 GLOBALSTAR M046 1 25651U 99012C 26104.08855403 -.00000179 00000+0 -99823-3 0 9998 2 25651 52.0027 132.0545 0001978 133.5272 257.7080 12.09421278220071 GLOBALSTAR M037 1 25652U 99012D 26104.04871073 -.00000071 00000+0 18339-3 0 9999 2 25652 52.0028 347.8029 0002504 118.0924 21.8433 12.62464674249275 GLOBALSTAR M045 1 25676U 99019A 26104.15854265 -.00000112 00000+0 -16064-3 0 9998 2 25676 51.9958 167.4253 0000340 168.7588 215.9542 12.27072783230342 GLOBALSTAR M019 1 25677U 99019B 26103.88743251 -.00000036 00000+0 56576-3 0 9996 2 25677 51.9900 319.7297 0001310 162.9622 210.4601 12.13883843221666 GLOBALSTAR M044 1 25678U 99019C 26104.26611106 -.00000067 00000+0 23307-3 0 9993 2 25678 51.9979 307.7006 0005399 257.3909 275.2658 11.90264984207170 GLOBALSTAR M042 1 25679U 99019D 26104.23492997 -.00000047 00000+0 42867-3 0 9996 2 25679 52.0014 281.0771 0002830 183.1519 348.1785 12.22096440222068 GLOBALSTAR M025 1 25770U 99031A 26104.27072788 -.00000065 00000+0 78377-4 0 9994 2 25770 51.9800 181.7864 0002040 266.3676 127.4506 11.22560791515520 GLOBALSTAR M049 1 25771U 99031B 26103.82216236 -.00000087 00000+0 -74289-3 0 9995 2 25771 51.9867 232.6938 0003256 159.0244 201.0686 11.12124028150870 GLOBALSTAR M047 1 25772U 99031C 26104.27768432 -.00000082 00000+0 -32780-3 0 9991 2 25772 51.9821 199.8659 0016334 62.3426 297.9036 11.31933219505209 GLOBALSTAR M052 1 25773U 99031D 26104.00310641 -.00000049 00000+0 56272-3 0 9992 2 25773 51.9898 336.7317 0002039 325.1611 173.5633 11.15064423512068 GLOBALSTAR M035 1 25851U 99037A 26104.28919458 -.00000080 00000+0 -61879-3 0 9991 2 25851 51.9921 103.4709 0013483 110.4320 262.9402 11.04541836129532 GLOBALSTAR M032 1 25852U 99037B 26104.17236235 -.00000089 00000+0 -72202-3 0 9996 2 25852 51.9951 268.1699 0012013 314.9159 45.0666 11.19068985168486 GLOBALSTAR M051 1 25853U 99037C 26104.18608044 -.00000069 00000+0 72005-4 0 9998 2 25853 51.9825 34.7657 0000407 92.9684 267.1173 11.42201738166780 GLOBALSTAR M030 1 25854U 99037D 26104.22366788 -.00000017 00000+0 12197-2 0 9997 2 25854 51.9861 181.6375 0003800 211.8246 148.2342 11.55110686184834 GLOBALSTAR M048 1 25872U 99041A 26103.98343756 -.00000053 00000+0 45413-3 0 9992 2 25872 51.9403 341.9193 0013166 349.2461 22.3868 11.33863187159100 GLOBALSTAR M026 1 25873U 99041B 26104.22908906 -.00000109 00000+0 -16685-2 0 9996 2 25873 52.0002 218.3918 0001595 65.3296 302.2704 11.06842365181823 GLOBALSTAR M043 1 25874U 99041C 26104.27549238 -.00000047 00000+0 62402-3 0 9990 2 25874 51.9377 100.8591 0013407 104.6971 268.4132 11.25699651156785 GLOBALSTAR M028 1 25875U 99041D 26104.14555830 -.00000098 00000+0 14991-4 0 9999 2 25875 51.9650 15.6459 0063739 5.6232 354.5332 12.50598590227832 GLOBALSTAR M024 1 25883U 99043A 26104.31059257 -.00000132 00000+0 -23894-2 0 9991 2 25883 52.0024 61.1741 0001236 234.9977 274.3898 11.10170656148309 GLOBALSTAR M027 1 25884U 99043B 26104.08769883 .00000002 00000+0 24826-2 0 9999 2 25884 52.0176 148.1892 0021536 117.9744 242.3232 11.04373546174489 GLOBALSTAR M054 1 25885U 99043C 26103.65290135 -.00000067 00000+0 11567-3 0 9992 2 25885 52.0133 226.0294 0004217 342.8592 120.1085 11.39226411153293 GLOBALSTAR M053 1 25886U 99043D 26104.26925663 -.00000068 00000+0 26858-4 0 9993 2 25886 51.9970 188.3544 0003705 224.7292 167.7292 11.27671348153416 GLOBALSTAR M058 1 25907U 99049A 26104.21112169 -.00000010 00000+0 99866-3 0 9992 2 25907 51.9969 25.3497 0002390 122.2560 237.8507 11.93211501577472 GLOBALSTAR M050 1 25908U 99049B 26104.22959987 -.00000023 00000+0 73728-3 0 9994 2 25908 52.0026 10.4860 0008438 273.4691 257.5058 12.07466194184550 GLOBALSTAR M033 1 25909U 99049C 26104.03844247 .00000029 00000+0 11564-2 0 9990 2 25909 51.9904 222.0643 0014938 161.4263 198.7132 12.20307421572470 GLOBALSTAR M055 1 25910U 99049D 26103.98544718 -.00000090 00000+0 39008-4 0 9999 2 25910 52.0016 218.3115 0006915 42.5308 317.6079 12.29443065205283 GLOBALSTAR M057 1 25943U 99058A 26104.32133450 -.00000080 00000+0 11821-3 0 9992 2 25943 51.9982 213.5749 0001955 266.1066 93.9560 12.24838257203837 GLOBALSTAR M059 1 25944U 99058B 26104.27961156 -.00000058 00000+0 34802-3 0 9998 2 25944 51.9993 112.6052 0000418 212.7664 160.8345 11.99997078610194 GLOBALSTAR M056 1 25945U 99058C 26104.32482733 -.00000059 00000+0 32983-3 0 9993 2 25945 51.9943 106.7262 0001224 57.2110 316.9302 12.04789132198927 GLOBALSTAR M031 1 25946U 99058D 26103.90789115 -.00000129 00000+0 -39428-3 0 9991 2 25946 51.9992 342.1798 0002112 75.4991 296.6385 12.16051157201133 GLOBALSTAR M039 1 25961U 99062A 26104.20588418 -.00000106 00000+0 -14121-4 0 9999 2 25961 51.9845 71.8511 0002510 302.7506 57.3118 12.62344730218234 GLOBALSTAR M034 1 25962U 99062B 26103.87581595 -.00000056 00000+0 38953-3 0 9992 2 25962 51.9886 309.7645 0013392 247.9808 125.3507 11.79456768173876 GLOBALSTAR M029 1 25963U 99062C 26104.17859987 -.00000079 00000+0 94480-4 0 9993 2 25963 51.9837 0.6595 0002625 2.3376 164.9696 11.99909709205250 GLOBALSTAR M061 1 25964U 99062D 26104.05594635 -.00000094 00000+0 -22655-3 0 9999 2 25964 51.9772 137.3249 0006146 171.6440 208.3124 11.76777083156603 GLOBALSTAR M063 1 26081U 00008A 26104.26889668 -.00000063 00000+0 28756-3 0 9991 2 26081 51.9977 38.6173 0004419 166.3012 5.0306 11.86183544193303 GLOBALSTAR M062 1 26082U 00008B 26104.25540485 -.00000046 00000+0 37222-3 0 9991 2 26082 51.9851 290.4168 0007807 41.6216 128.9075 12.43484864534076 GLOBALSTAR M060 1 26083U 00008C 26104.26197714 -.00000003 00000+0 87302-3 0 9993 2 26083 52.0021 293.0033 0003422 32.4077 138.5385 12.17680776189045 GLOBALSTAR M064 1 26084U 00008D 26104.05050071 -.00000057 00000+0 37909-3 0 9992 2 26084 52.0002 134.4779 0001502 268.9409 91.1251 11.88543626202874 GLOBALSTAR M065 1 31571U 07020A 26104.28782319 -.00000055 00000+0 27434-3 0 9992 2 31571 51.9918 29.7948 0009232 255.7802 272.5001 12.62025676871422 GLOBALSTAR M069 1 31573U 07020C 26104.32410242 -.00000114 00000+0 -19873-3 0 9997 2 31573 52.0030 72.8801 0002051 20.0106 128.2198 12.23469974870984 GLOBALSTAR M072 1 31574U 07020D 26104.24504615 -.00000086 00000+0 -22080-4 0 9990 2 31574 51.9932 270.4787 0001589 158.1635 12.9898 11.91657133867351 GLOBALSTAR M071 1 31576U 07020F 26104.30914030 .00000000 00000+0 89601-3 0 9990 2 31576 52.0040 107.0296 0000879 357.7865 15.9367 12.18267992531642 GLOBALSTAR M067 1 32263U 07048A 26104.09798520 -.00000092 00000+0 38180-4 0 9993 2 32263 51.9726 235.4274 0000741 224.6396 308.0153 12.40687212846831 GLOBALSTAR M070 1 32264U 07048B 26104.28181422 -.00000075 00000+0 16022-3 0 9993 2 32264 51.9754 291.2344 0001035 100.8002 70.1054 12.62333261851690 GLOBALSTAR M066 1 32265U 07048C 26104.29299363 -.00000104 00000+0 -81210-4 0 9995 2 32265 51.9587 241.3348 0004097 263.0742 104.4306 12.30388271852361 GLOBALSTAR M068 1 32266U 07048D 26104.30024014 -.00000061 00000+0 23939-3 0 9991 2 32266 51.9868 104.3436 0001173 77.7810 295.2460 12.62844629855607 GLOBALSTAR M079 1 37188U 10054A 26104.25880588 -.00000087 00000+0 95111-4 0 9990 2 37188 52.0047 303.2790 0000687 115.5675 55.4194 12.62264956714476 GLOBALSTAR M074 1 37189U 10054B 26104.28533731 -.00000083 00000+0 11545-3 0 9993 2 37189 52.0026 302.4740 0000697 88.5122 82.7380 12.62267436715081 GLOBALSTAR M076 1 37190U 10054C 26104.31148913 -.00000070 00000+0 18970-3 0 9998 2 37190 52.0039 302.5911 0000480 93.3567 77.4374 12.62271784714809 GLOBALSTAR M077 1 37191U 10054D 26104.01732887 -.00000056 00000+0 40179-3 0 9995 2 37191 51.9987 342.1699 0003247 61.7525 76.5363 11.67547287713647 GLOBALSTAR M075 1 37192U 10054E 26104.08212037 -.00000083 00000+0 11378-3 0 9992 2 37192 51.9969 345.3795 0000770 85.9530 61.5955 12.62265811713841 GLOBALSTAR M073 1 37193U 10054F 26104.16684701 -.00000109 00000+0 -26647-4 0 9999 2 37193 52.0057 259.1712 0000594 127.5335 44.2194 12.62266368715846 GLOBALSTAR M083 1 37739U 11033A 26104.30787956 -.00000107 00000+0 -18781-4 0 9993 2 37739 51.9855 207.0573 0000521 149.0746 245.6047 12.62262473684884 GLOBALSTAR M088 1 37740U 11033B 26104.27731244 -.00000080 00000+0 13104-3 0 9992 2 37740 52.0195 113.4234 0000235 76.7306 296.9983 12.62263049680423 GLOBALSTAR M091 1 37741U 11033C 26104.31971380 -.00000100 00000+0 19415-4 0 9990 2 37741 51.9987 76.3509 0000402 89.8308 58.0756 12.62262704681216 GLOBALSTAR M085 1 37742U 11033D 26104.23106366 -.00000101 00000+0 15545-4 0 9997 2 37742 52.0149 27.8578 0000623 93.2789 71.7837 12.62270129681710 GLOBALSTAR M081 1 37743U 11033E 26104.25765131 -.00000113 00000+0 -49334-4 0 9998 2 37743 51.9981 30.2864 0000457 73.1433 92.0381 12.62263362681864 GLOBALSTAR M089 1 37744U 11033F 26104.05454455 -.00000088 00000+0 90326-4 0 9998 2 37744 51.9956 345.0795 0000704 59.8702 82.2284 12.62265648682685 GLOBALSTAR M084 1 38040U 11080A 26104.07442124 -.00000112 00000+0 -46661-4 0 9994 2 38040 52.0004 212.4646 0000330 101.9687 70.3970 12.62266305660664 GLOBALSTAR M080 1 38041U 11080B 26104.24889508 -.00000111 00000+0 -41729-4 0 9994 2 38041 52.0055 213.6298 0001027 122.1607 253.1094 12.62268245660818 GLOBALSTAR M082 1 38042U 11080C 26104.18958295 -.00000089 00000+0 83821-4 0 9990 2 38042 52.0067 169.3052 0000684 134.3629 261.3012 12.62269006661519 GLOBALSTAR M092 1 38043U 11080D 26104.19297706 -.00000083 00000+0 11525-3 0 9990 2 38043 52.0081 259.6875 0000710 105.1320 65.4721 12.62266418659966 GLOBALSTAR M090 1 38044U 11080E 26104.13388937 -.00000080 00000+0 13034-3 0 9996 2 38044 52.0110 163.4096 0000371 143.3561 238.2891 12.62267939661624 GLOBALSTAR M086 1 38045U 11080F 26104.15788302 -.00000085 00000+0 10254-3 0 9995 2 38045 51.9881 163.3711 0000760 254.5712 132.8165 12.62285204661578 GLOBALSTAR M097 1 39072U 13005A 26104.26065913 -.00000117 00000+0 -73425-4 0 9990 2 39072 52.0045 77.9277 0000265 96.9369 263.1528 12.62260114608830 GLOBALSTAR M093 1 39073U 13005B 26104.15526294 -.00000100 00000+0 18548-4 0 9999 2 39073 52.0102 71.5728 0000240 124.8740 235.2150 12.62264476608772 GLOBALSTAR M094 1 39074U 13005C 26103.99699342 -.00000086 00000+0 98351-4 0 9999 2 39074 51.9981 346.2408 0000636 101.4989 258.5949 12.62267377610363 GLOBALSTAR M096 1 39075U 13005D 26104.24781803 -.00000105 00000+0 -63896-5 0 9993 2 39075 52.0094 34.2241 0000518 90.5944 269.4982 12.62264004609313 GLOBALSTAR M078 1 39076U 13005E 26104.29997113 -.00000088 00000+0 90392-4 0 9991 2 39076 51.9850 118.1619 0001130 118.7834 241.3146 12.62276813607944 GLOBALSTAR M095 1 39077U 13005F 26104.16839631 -.00000087 00000+0 95226-4 0 9998 2 39077 52.0061 116.0774 0000566 138.5625 221.5285 12.62267353607785 GLOBALSTAR M087 1 52888U 22064A 26104.10267872 -.00000107 00000+0 -17699-4 0 9996 2 52888 51.9997 257.5560 0000828 127.7999 232.2943 12.62268120183046